Flag for Mexico Weather past 2 weeks in Playa del Carmen, Quintana Roo, Mexico

Now
81 °F

Scattered clouds.


Feels Like: 85 °F
Forecast: N/A
Wind: 14 mph from East

Location: Cozumel Civ / Mil

Current Time: Mar 6, 2015 at 4:55:56 PM

Latest Report: Mar 6, 2015 at 3:44 PM


Visibility: 8 mi

Pressure: 30.10 "Hg

Humidity: 74%

Dew point: 72 °F

Location of Playa del CarmenLocation

Historic Weather in Playa del Carmen — Graph

°F

Playa del Carmen temperature yesterday

Maximum temperature yesterday: 82 °F (at 11:41 AM)
Minimum temperature yesterday: 68 °F (at 11:49 PM)
Average temperature yesterday: 75 °F

Past Weeks' High & Low Weather Summary

 TemperatureHumidityPressure
High84 °F (Feb 24, 12:53 PM)100% (Feb 21, 8:43 PM)30.25 "Hg (Feb 21, 8:43 PM)
Low57 °F (Feb 20, 10:42 PM)57% (Feb 19, 3:43 PM)29.80 "Hg (Feb 26, 4:50 AM)
Average73 °F87%30.05 "Hg
* Reported Feb 19 3:43 PM — Mar 6 3:44 PM, Playa del Carmen, Weather by CustomWeather, © 2015

Note: Actual official high and low records may vary slightly from our data, if they occured in-between our weather recording intervals... More about our weather records

Advertising

Playa del Carmen weather history for previous 24 hours

 ConditionsComfort  
Time TempWeatherWind HumidityBarometerVisibility
3:44 PM
Fri, Mar 6
81 °FScattered clouds.14 mph74%30.10 "Hg8 mi
2:49 PM82 °FScattered clouds.17 mph70%30.10 "Hg8 mi
1:52 PM81 °FScattered clouds.14 mph70%30.12 "Hg8 mi
12:46 PM82 °FScattered clouds.10 mph70%30.10 "Hg8 mi
11:40 AM81 °FScattered clouds.13 mph74%30.16 "Hg8 mi
10:53 AM79 °FScattered clouds.12 mph79%30.16 "Hg8 mi
9:49 AM77 °FPassing clouds.12 mph83%30.17 "Hg8 mi
8:40 AM75 °FPassing clouds.7 mph94%30.13 "Hg7 mi
7:45 AM68 °FPassing clouds.No wind100%30.12 "Hg7 mi
6:49 AM66 °FPassing clouds.No wind100%30.07 "Hg7 mi
5:41 AM70 °FClear.No wind100%30.08 "Hg7 mi
4:44 AM66 °FClear.6 mph100%30.06 "Hg7 mi
3:48 AM66 °FClear.No wind100%30.07 "Hg7 mi
2:44 AM68 °FPassing clouds.No wind100%30.06 "Hg7 mi
1:46 AM68 °FPassing clouds.No wind100%30.08 "Hg7 mi
12:43 AM68 °FClear.No wind100%30.08 "Hg7 mi
11:49 PM
Thu, Mar 5
68 °FClear.No wind100%30.10 "Hg7 mi
10:48 PM70 °FPassing clouds.No wind100%30.10 "Hg7 mi
9:46 PM72 °FPassing clouds.No wind94%30.12 "Hg7 mi
8:44 PM72 °FPassing clouds.No wind100%30.09 "Hg7 mi
7:46 PM73 °FPassing clouds.No wind94%30.06 "Hg7 mi
6:42 PM77 °FScattered clouds.15 mph83%30.01 "Hg8 mi
5:45 PM79 °FScattered clouds.6 mph79%30.02 "Hg8 mi
4:44 PM81 °FScattered clouds.14 mph74%30.00 "Hg8 mi
Weather by CustomWeather, © 2015

See weather overviewHow to use our weather pages